,,PA_Meas_PMT16A,,PR_Meas_QMR101_102,,RH_Meas_QMH101,,SR_Meas_QMS101,,TA_Meas_QMH101,,GenWind,,GenWind,
time,status,PA,status,PR,status,RH,status,SR,status,TA,status,DirAvg,status,SpdAvg,
2013-04-17, 00:00:04,VALID,916.917,VALID,0,VALID,94.3474,VALID,0,VALID,21.0096,VALID,11,VALID,0,
2013-04-17, 00:01:04,VALID,916.925,VALID,0,VALID,94.3321,VALID,0,VALID,21.0291,VALID,11,VALID,0,
2013-04-17, 00:02:04,VALID,916.921,VALID,0,VALID,94.2788,VALID,0,VALID,21.0486,VALID,11,VALID,0,
2013-04-17, 00:03:04,VALID,916.92,VALID,0,VALID,94.2407,VALID,0,VALID,21.0486,VALID,13,VALID,0,
2013-04-17, 00:04:04,VALID,916.894,VALID,0,VALID,94.2864,VALID,0,VALID,21.0681,VALID,13,VALID,0,
2013-04-17, 00:05:04,VALID,916.915,VALID,0,VALID,94.1644,VALID,0,VALID,21.0486,VALID,333,VALID,0,
2013-04-17, 00:06:04,VALID,916.89,VALID,0,VALID,94.1797,VALID,0,VALID,21.0486,VALID,347,VALID,0,
2013-04-17, 00:07:04,VALID,916.907,VALID,0,VALID,94.073,VALID,0,VALID,21.0291,VALID,360,VALID,0,
2013-04-17, 00:08:04,VALID,916.917,VALID,0,VALID,94.1034,VALID,0,VALID,21.0096,VALID,298,VALID,0,
2013-04-17, 00:09:04,VALID,916.896,VALID,0,VALID,94.2178,VALID,0,VALID,21.0307,VALID,234,VALID,0,
2013-04-17, 00:10:04,VALID,916.878,VALID,0,VALID,94.1797,VALID,0,VALID,21.0307,VALID,237,VALID,0,
2013-04-17, 00:11:04,VALID,916.88,VALID,0,VALID,94.3017,VALID,0,VALID,20.9901,VALID,237,VALID,0,
2013-04-17, 00:12:05,VALID,916.909,VALID,0,VALID,94.3169,VALID,0.107441,VALID,20.9885,VALID,237,VALID,0,
2013-04-17, 00:13:05,VALID,916.94,VALID,0,VALID,94.3245,VALID,0.107441,VALID,20.9885,VALID,237,VALID,0,
2013-04-17, 00:14:05,VALID,916.945,VALID,0,VALID,94.355,VALID,0,VALID,20.969,VALID,237,VALID,0,
2013-04-17, 00:15:05,VALID,916.923,VALID,0,VALID,94.4084,VALID,0.107441,VALID,20.969,VALID,237,VALID,0,
2013-04-17, 00:16:05,VALID,916.936,VALID,0,VALID,94.4313,VALID,0,VALID,20.9885,VALID,237,VALID,0,
2013-04-17, 00:17:05,VALID,916.932,VALID,0,VALID,94.5151,VALID,0.107441,VALID,20.9885,VALID,351,VALID,0,
2013-04-17, 00:18:05,VALID,916.963,VALID,0,VALID,94.5609,VALID,0,VALID,21.0275,VALID,353,VALID,0,
2013-04-17, 00:19:05,VALID,916.912,VALID,0,VALID,94.477,VALID,0,VALID,21.047,VALID,353,VALID,0,
2013-04-17, 00:20:05,VALID,916.908,VALID,0,VALID,94.3093,VALID,0,VALID,21.047,VALID,289,VALID,0,
2013-04-17, 00:21:05,VALID,916.89,VALID,0,VALID,94.3398,VALID,0,VALID,21.008,VALID,253,VALID,0,
2013-04-17, 00:22:05,VALID,916.906,VALID,0,VALID,94.3398,VALID,0.107441,VALID,21.008,VALID,239,VALID,0,
2013-04-17, 00:23:05,VALID,916.878,VALID,0,VALID,94.4236,VALID,0,VALID,20.969,VALID,239,VALID,0,
2013-04-17, 00:24:05,VALID,916.914,VALID,0,VALID,94.4922,VALID,0,VALID,20.9495,VALID,247,VALID,0,
2013-04-17, 00:25:05,VALID,916.87,VALID,0,VALID,94.6218,VALID,0.107441,VALID,20.9495,VALID,242,VALID,0,
2013-04-17, 00:26:05,VALID,916.898,VALID,0,VALID,94.6905,VALID,0,VALID,20.9495,VALID,237,VALID,0,
2013-04-17, 00:27:05,VALID,916.824,VALID,0,VALID,94.8048,VALID,0,VALID,20.9495,VALID,211,VALID,0,
2013-04-17, 00:28:05,VALID,916.838,VALID,0,VALID,94.9268,VALID,0.107441,VALID,20.9479,VALID,282,VALID,0,
2013-04-17, 00:29:05,VALID,916.816,VALID,0,VALID,95.0945,VALID,0.107441,VALID,20.9869,VALID,267,VALID,0,
2013-04-17, 00:30:05,VALID,916.767,VALID,0,VALID,95.1174,VALID,0,VALID,21.0275,VALID,267,VALID,0,
2013-04-17, 00:31:05,VALID,916.687,VALID,0,VALID,95.1555,VALID,0.107441,VALID,21.0275,VALID,267,VALID,0,
2013-04-17, 00:32:05,VALID,916.632,VALID,0,VALID,95.0792,VALID,0.107441,VALID,21.0275,VALID,215,VALID,0,
2013-04-17, 00:33:05,VALID,916.603,VALID,0,VALID,95.1326,VALID,0.107441,VALID,21.0275,VALID,241,VALID,0,
2013-04-17, 00:34:05,VALID,916.584,VALID,0,VALID,95.0716,VALID,0.107441,VALID,20.9885,VALID,350,VALID,0,
2013-04-17, 00:35:05,VALID,916.539,VALID,0,VALID,95.1326,VALID,0,VALID,21.0096,VALID,42,VALID,0,
2013-04-17, 00:36:05,VALID,916.572,VALID,0,VALID,95.186,VALID,0,VALID,20.9495,VALID,349,VALID,0,
2013-04-17, 00:37:05,VALID,916.595,VALID,0,VALID,95.1174,VALID,0,VALID,20.9105,VALID,247,VALID,0,
2013-04-17, 00:38:05,VALID,916.624,VALID,0,VALID,95.1936,VALID,0.107441,VALID,20.891,VALID,258,VALID,0,
2013-04-17, 00:39:05,VALID,916.652,VALID,0,VALID,95.3613,VALID,0.107441,VALID,20.9105,VALID,33,VALID,0,
2013-04-17, 00:40:05,VALID,916.654,VALID,0,VALID,95.3308,VALID,0,VALID,20.8714,VALID,193,VALID,0,
2013-04-17, 00:41:05,VALID,916.658,VALID,0,VALID,95.4528,VALID,0.107441,VALID,20.8714,VALID,153,VALID,0,
2013-04-17, 00:42:05,VALID,916.644,VALID,0,VALID,95.59,VALID,0.107441,VALID,20.9105,VALID,36,VALID,0,
2013-04-17, 00:43:05,VALID,916.657,VALID,0,VALID,95.6129,VALID,0.107441,VALID,20.93,VALID,24,VALID,0,
2013-04-17, 00:44:05,VALID,916.652,VALID,0.2,VALID,95.6281,VALID,0.107441,VALID,20.8894,VALID,188,VALID,0,
2013-04-17, 00:45:05,VALID,916.658,VALID,0,VALID,95.6739,VALID,0,VALID,20.9105,VALID,172,VALID,0,
2013-04-17, 00:46:05,VALID,916.552,VALID,0,VALID,95.6891,VALID,0,VALID,20.891,VALID,68,VALID,0,
2013-04-17, 00:47:05,VALID,916.666,VALID,0.2,VALID,95.6967,VALID,0,VALID,20.8519,VALID,253,VALID,0,
2013-04-17, 00:48:05,VALID,916.614,VALID,0.2,VALID,95.7196,VALID,0,VALID,20.8324,VALID,198,VALID,0,
2013-04-17, 00:49:05,VALID,916.689,VALID,0,VALID,95.7654,VALID,0.107441,VALID,20.8129,VALID,299,VALID,0,
2013-04-17, 00:50:05,VALID,916.585,VALID,0,VALID,95.468,VALID,0.107441,VALID,20.7154,VALID,212,VALID,0,
2013-04-17, 00:51:05,VALID,916.513,VALID,0,VALID,95.4604,VALID,0.107441,VALID,20.6959,VALID,141,VALID,0,
2013-04-17, 00:52:05,VALID,916.516,VALID,0.2,VALID,95.2698,VALID,0,VALID,20.6569,VALID,288,VALID,0,
2013-04-17, 00:53:05,VALID,916.489,VALID,0,VALID,95.4299,VALID,0.107441,VALID,20.6179,VALID,44,VALID,0,
2013-04-17, 00:54:05,VALID,916.499,VALID,0,VALID,95.4757,VALID,0,VALID,20.5984,VALID,196,VALID,0,
2013-04-17, 00:55:05,VALID,916.489,VALID,0,VALID,95.5367,VALID,0,VALID,20.5789,VALID,201,VALID,0,
2013-04-17, 00:56:05,VALID,916.516,VALID,0,VALID,95.6129,VALID,0.107441,VALID,20.5594,VALID,360,VALID,0,
2013-04-17, 00:57:05,VALID,916.438,VALID,0,VALID,95.6586,VALID,0.107441,VALID,20.5399,VALID,45,VALID,0,
2013-04-17, 00:58:05,VALID,916.43,VALID,0,VALID,95.7501,VALID,0,VALID,20.5399,VALID,246,VALID,0,
2013-04-17, 00:59:05,VALID,916.37,VALID,0,VALID,95.6586,VALID,0.107441,VALID,20.4813,VALID,34,VALID,0,
2013-04-17, 01:00:05,VALID,916.409,VALID,0,VALID,95.7044,VALID,0,VALID,20.4618,VALID,266,VALID,0,
2013-04-17, 01:01:05,VALID,916.388,VALID,0,VALID,95.6967,VALID,0.107441,VALID,20.4018,VALID,34,VALID,0,
2013-04-17, 01:02:05,VALID,916.387,VALID,0,VALID,95.8111,VALID,0.107441,VALID,20.4228,VALID,25,VALID,0,
2013-04-17, 01:03:05,VALID,916.402,VALID,0,VALID,95.8797,VALID,0.107441,VALID,20.4033,VALID,5,VALID,0,
2013-04-17, 01:04:05,VALID,916.327,VALID,0,VALID,95.9178,VALID,0.107441,VALID,20.3838,VALID,38,VALID,0,
2013-04-17, 01:05:05,VALID,916.259,VALID,0,VALID,95.9712,VALID,0,VALID,20.3838,VALID,22,VALID,0,
2013-04-17, 01:06:05,VALID,916.254,VALID,0,VALID,95.9941,VALID,0.107441,VALID,20.3253,VALID,22,VALID,0,
2013-04-17, 01:07:05,VALID,916.253,VALID,0,VALID,96.055,VALID,0,VALID,20.3253,VALID,33,VALID,0,
2013-04-17, 01:08:05,VALID,916.261,VALID,0,VALID,96.0703,VALID,0,VALID,20.2863,VALID,30,VALID,0,
2013-04-17, 01:09:05,VALID,916.243,VALID,0.2,VALID,96.0245,VALID,0.107441,VALID,20.1888,VALID,51,VALID,0,
2013-04-17, 01:10:05,VALID,916.313,VALID,0,VALID,96.0779,VALID,0.107441,VALID,20.1498,VALID,9,VALID,0,
2013-04-17, 01:11:05,VALID,916.24,VALID,0,VALID,96.0932,VALID,0,VALID,20.0913,VALID,28,VALID,0,
2013-04-17, 01:12:05,VALID,916.251,VALID,0,VALID,96.1084,VALID,0,VALID,20.0928,VALID,1,VALID,0,
2013-04-17, 01:13:05,VALID,916.196,VALID,0,VALID,96.1618,VALID,0,VALID,20.0538,VALID,274,VALID,0,
2013-04-17, 01:14:05,VALID,916.245,VALID,0,VALID,96.1846,VALID,0,VALID,20.0148,VALID,45,VALID,0,
2013-04-17, 01:15:05,VALID,916.167,VALID,0,VALID,96.1846,VALID,0,VALID,19.9743,VALID,7,VALID,0,
2013-04-17, 01:16:05,VALID,916.201,VALID,0,VALID,96.2609,VALID,0,VALID,19.9953,VALID,53,VALID,0,
2013-04-17, 01:17:05,VALID,916.22,VALID,0,VALID,96.2837,VALID,0.107441,VALID,19.9953,VALID,48,VALID,0,
2013-04-17, 01:18:05,VALID,916.211,VALID,0,VALID,96.3524,VALID,0,VALID,19.9938,VALID,19,VALID,0,
2013-04-17, 01:19:05,VALID,916.271,VALID,0,VALID,96.4057,VALID,0,VALID,20.0133,VALID,345,VALID,0,
2013-04-17, 01:20:05,VALID,916.27,VALID,0,VALID,96.36,VALID,0,VALID,19.9353,VALID,360,VALID,0,
2013-04-17, 01:21:05,VALID,916.244,VALID,0,VALID,96.3676,VALID,0,VALID,19.9368,VALID,297,VALID,0,
2013-04-17, 01:22:05,VALID,916.224,VALID,0,VALID,96.3676,VALID,0,VALID,19.9158,VALID,25,VALID,0,
2013-04-17, 01:23:05,VALID,916.222,VALID,0,VALID,96.421,VALID,0,VALID,19.9173,VALID,290,VALID,0,
2013-04-17, 01:24:05,VALID,916.219,VALID,0,VALID,96.4438,VALID,0,VALID,19.9158,VALID,279,VALID,0,
2013-04-17, 01:25:05,VALID,916.208,VALID,0,VALID,96.4743,VALID,0,VALID,19.9173,VALID,329,VALID,0,
2013-04-17, 01:26:05,VALID,916.197,VALID,0,VALID,96.4667,VALID,0,VALID,19.8978,VALID,18,VALID,0,
2013-04-17, 01:27:05,VALID,916.198,VALID,0,VALID,96.4972,VALID,0,VALID,19.8783,VALID,6,VALID,0,
2013-04-17, 01:28:05,VALID,916.143,VALID,0,VALID,96.5124,VALID,0,VALID,19.8588,VALID,350,VALID,0,
2013-04-17, 01:29:05,VALID,916.154,VALID,0,VALID,96.5277,VALID,0,VALID,19.8783,VALID,23,VALID,0,
2013-04-17, 01:30:05,VALID,916.144,VALID,0,VALID,96.5506,VALID,0,VALID,19.8588,VALID,19,VALID,0,
2013-04-17, 01:31:05,VALID,916.163,VALID,0,VALID,96.5811,VALID,0,VALID,19.8783,VALID,15,VALID,0,
2013-04-17, 01:32:05,VALID,916.154,VALID,0,VALID,96.6115,VALID,0,VALID,19.8978,VALID,18,VALID,0,
2013-04-17, 01:33:05,VALID,916.17,VALID,0,VALID,96.6192,VALID,0,VALID,19.8978,VALID,13,VALID,0,
2013-04-17, 01:34:05,VALID,916.137,VALID,0,VALID,96.642,VALID,0,VALID,19.8783,VALID,43,VALID,0,
2013-04-17, 01:35:05,VALID,916.176,VALID,0,VALID,96.642,VALID,0,VALID,19.8798,VALID,5,VALID,0,
2013-04-17, 01:36:05,VALID,916.116,VALID,0,VALID,96.6115,VALID,0,VALID,19.8003,VALID,26,VALID,0,
2013-04-17, 01:37:05,VALID,916.159,VALID,0,VALID,96.6268,VALID,0,VALID,19.7988,VALID,4,VALID,0,
2013-04-17, 01:38:05,VALID,916.135,VALID,0,VALID,96.6725,VALID,0.107441,VALID,19.8003,VALID,26,VALID,0,
2013-04-17, 01:39:05,VALID,916.117,VALID,0,VALID,96.6878,VALID,0,VALID,19.7808,VALID,10,VALID,0,
2013-04-17, 01:40:05,VALID,916.109,VALID,0,VALID,96.703,VALID,0,VALID,19.7808,VALID,38,VALID,0,
2013-04-17, 01:41:05,VALID,916.102,VALID,0,VALID,96.703,VALID,0,VALID,19.7808,VALID,28,VALID,0,
2013-04-17, 01:42:05,VALID,916.095,VALID,0,VALID,96.7335,VALID,0,VALID,19.7223,VALID,8,VALID,0,
2013-04-17, 01:43:05,VALID,916.097,VALID,0,VALID,96.7259,VALID,0,VALID,19.7028,VALID,359,VALID,0,
2013-04-17, 01:44:05,VALID,916.066,VALID,0,VALID,96.7335,VALID,0,VALID,19.6638,VALID,8,VALID,0,
2013-04-17, 01:45:05,VALID,916.056,VALID,0,VALID,96.7945,VALID,0,VALID,19.6833,VALID,13,VALID,0,
2013-04-17, 01:46:05,VALID,916.081,VALID,0,VALID,96.7793,VALID,0,VALID,19.6833,VALID,29,VALID,0,
2013-04-17, 01:47:05,VALID,916.086,VALID,0,VALID,96.8174,VALID,0,VALID,19.7223,VALID,2,VALID,0,
2013-04-17, 01:48:05,VALID,916.068,VALID,0,VALID,96.8479,VALID,0,VALID,19.6818,VALID,26,VALID,0,
2013-04-17, 01:49:05,VALID,916.069,VALID,0,VALID,96.8631,VALID,0,VALID,19.7223,VALID,18,VALID,0,
2013-04-17, 01:50:05,VALID,916.06,VALID,0,VALID,96.8479,VALID,0,VALID,19.6833,VALID,359,VALID,0,
2013-04-17, 01:51:05,VALID,916.006,VALID,0,VALID,96.8707,VALID,0,VALID,19.6638,VALID,357,VALID,0,
2013-04-17, 01:52:05,VALID,915.983,VALID,0,VALID,96.8631,VALID,0,VALID,19.6638,VALID,2,VALID,0,
2013-04-17, 01:53:05,VALID,915.993,VALID,0,VALID,96.8784,VALID,0,VALID,19.6833,VALID,328,VALID,0,
2013-04-17, 01:54:05,VALID,915.918,VALID,0,VALID,96.9012,VALID,0,VALID,19.7028,VALID,360,VALID,0,
2013-04-17, 01:55:05,VALID,915.933,VALID,0,VALID,96.9241,VALID,0,VALID,19.7223,VALID,25,VALID,0,
2013-04-17, 01:56:05,VALID,915.914,VALID,0,VALID,96.947,VALID,0,VALID,19.7223,VALID,356,VALID,0,
2013-04-17, 01:57:05,VALID,915.941,VALID,0,VALID,96.9394,VALID,0,VALID,19.7418,VALID,14,VALID,0,
2013-04-17, 01:58:05,VALID,915.928,VALID,0,VALID,96.9394,VALID,0,VALID,19.7613,VALID,3,VALID,0,
2013-04-17, 01:59:05,VALID,915.877,VALID,0,VALID,96.9394,VALID,0,VALID,19.7808,VALID,74,VALID,0,
2013-04-17, 02:00:05,VALID,915.896,VALID,0,VALID,96.9546,VALID,0,VALID,19.7808,VALID,242,VALID,0,
2013-04-17, 02:01:05,VALID,915.818,VALID,0,VALID,96.9851,VALID,0,VALID,19.7418,VALID,37,VALID,0,
2013-04-17, 02:02:05,VALID,915.856,VALID,0,VALID,96.9698,VALID,0,VALID,19.7223,VALID,24,VALID,0,
2013-04-17, 02:03:05,VALID,915.868,VALID,0,VALID,96.9698,VALID,0,VALID,19.7223,VALID,6,VALID,0,
2013-04-17, 02:04:05,VALID,915.802,VALID,0,VALID,96.9775,VALID,0,VALID,19.7223,VALID,357,VALID,0,
2013-04-17, 02:05:05,VALID,915.779,VALID,0,VALID,96.9851,VALID,0,VALID,19.7418,VALID,19,VALID,0,
2013-04-17, 02:06:05,VALID,915.806,VALID,0,VALID,96.9927,VALID,0,VALID,19.7613,VALID,360,VALID,0,
2013-04-17, 02:07:05,VALID,915.805,VALID,0,VALID,96.9927,VALID,0,VALID,19.7613,VALID,17,VALID,0,
2013-04-17, 02:08:05,VALID,915.805,VALID,0,VALID,97.0003,VALID,0,VALID,19.8003,VALID,18,VALID,0,
2013-04-17, 02:09:05,VALID,915.762,VALID,0,VALID,97.0156,VALID,0,VALID,19.8393,VALID,13,VALID,0,
2013-04-17, 02:10:05,VALID,915.79,VALID,0,VALID,97.0232,VALID,0,VALID,19.8198,VALID,22,VALID,0,
2013-04-17, 02:11:05,VALID,915.779,VALID,0,VALID,97.0308,VALID,0,VALID,19.8198,VALID,1,VALID,0,
2013-04-17, 02:12:05,VALID,915.742,VALID,0,VALID,97.0156,VALID,0,VALID,19.8003,VALID,32,VALID,0,
2013-04-17, 02:13:05,VALID,915.755,VALID,0,VALID,97.008,VALID,0,VALID,19.8198,VALID,273,VALID,0,
2013-04-17, 02:14:05,VALID,915.732,VALID,0,VALID,97.0385,VALID,0,VALID,19.8183,VALID,1,VALID,0,
2013-04-17, 02:15:05,VALID,915.749,VALID,0,VALID,97.0156,VALID,0,VALID,19.8198,VALID,24,VALID,0,
2013-04-17, 02:16:05,VALID,915.717,VALID,0,VALID,97.0461,VALID,0,VALID,19.8588,VALID,25,VALID,0,
2013-04-17, 02:17:05,VALID,915.67,VALID,0,VALID,97.0461,VALID,0,VALID,19.8393,VALID,30,VALID,0,
2013-04-17, 02:18:05,VALID,915.705,VALID,0,VALID,97.0385,VALID,0,VALID,19.8393,VALID,196,VALID,0,
2013-04-17, 02:19:05,VALID,915.703,VALID,0,VALID,97.0461,VALID,0,VALID,19.8393,VALID,47,VALID,0,
2013-04-17, 02:20:05,VALID,915.739,VALID,0,VALID,97.0613,VALID,0,VALID,19.8588,VALID,1,VALID,0,
2013-04-17, 02:21:05,VALID,915.72,VALID,0,VALID,97.0537,VALID,0,VALID,19.8198,VALID,18,VALID,0,
2013-04-17, 02:22:05,VALID,915.745,VALID,0,VALID,97.0613,VALID,0,VALID,19.8393,VALID,18,VALID,0,
2013-04-17, 02:23:05,VALID,915.731,VALID,0,VALID,97.0537,VALID,0,VALID,19.8588,VALID,359,VALID,0,
2013-04-17, 02:24:05,VALID,915.758,VALID,0,VALID,97.0461,VALID,0,VALID,19.8588,VALID,33,VALID,0,
2013-04-17, 02:25:05,VALID,915.738,VALID,0,VALID,97.0613,VALID,0,VALID,19.8588,VALID,179,VALID,0,
2013-04-17, 02:26:05,VALID,915.729,VALID,0,VALID,97.0613,VALID,0,VALID,19.8393,VALID,179,VALID,0,
2013-04-17, 02:27:05,VALID,915.718,VALID,0,VALID,97.0613,VALID,0,VALID,19.8588,VALID,46,VALID,0,
2013-04-17, 02:28:05,VALID,915.721,VALID,0,VALID,97.0613,VALID,0,VALID,19.8588,VALID,60,VALID,0,
2013-04-17, 02:29:05,VALID,915.722,VALID,0,VALID,97.0918,VALID,0,VALID,19.8393,VALID,32,VALID,0,
2013-04-17, 02:30:05,VALID,915.741,VALID,0,VALID,97.069,VALID,0,VALID,19.8588,VALID,29,VALID,0,
2013-04-17, 02:31:05,VALID,915.731,VALID,0,VALID,97.0918,VALID,0,VALID,19.8393,VALID,13,VALID,0,
2013-04-17, 02:32:05,VALID,915.77,VALID,0,VALID,97.069,VALID,0,VALID,19.8603,VALID,215,VALID,0,
2013-04-17, 02:33:05,VALID,915.753,VALID,0,VALID,97.0537,VALID,0,VALID,19.8408,VALID,151,VALID,0,
2013-04-17, 02:34:05,VALID,915.822,VALID,0,VALID,97.0766,VALID,0,VALID,19.8393,VALID,83,VALID,0,
2013-04-17, 02:35:05,VALID,915.769,VALID,0,VALID,97.0842,VALID,0,VALID,19.8003,VALID,89,VALID,0,
2013-04-17, 02:36:05,VALID,915.792,VALID,0,VALID,97.0918,VALID,0,VALID,19.8003,VALID,6,VALID,0,
2013-04-17, 02:37:05,VALID,915.797,VALID,0,VALID,97.0994,VALID,0,VALID,19.7808,VALID,167,VALID,0,
2013-04-17, 02:38:05,VALID,915.809,VALID,0,VALID,97.0994,VALID,0,VALID,19.8198,VALID,145,VALID,0,
2013-04-17, 02:39:05,VALID,915.806,VALID,0,VALID,97.0994,VALID,0,VALID,19.8198,VALID,144,VALID,0,
2013-04-17, 02:40:05,VALID,915.817,VALID,0,VALID,97.1071,VALID,0,VALID,19.8198,VALID,144,VALID,0,
2013-04-17, 02:41:05,VALID,915.804,VALID,0,VALID,97.1147,VALID,0,VALID,19.8198,VALID,195,VALID,0,
2013-04-17, 02:42:05,VALID,915.841,VALID,0,VALID,97.1071,VALID,0,VALID,19.8198,VALID,195,VALID,0,
2013-04-17, 02:43:05,VALID,915.833,VALID,0,VALID,97.1071,VALID,0,VALID,19.8198,VALID,194,VALID,0,
2013-04-17, 02:44:05,VALID,915.783,VALID,0,VALID,97.1223,VALID,0.107441,VALID,19.8393,VALID,74,VALID,0,
2013-04-17, 02:45:05,VALID,915.82,VALID,0,VALID,97.1071,VALID,0,VALID,19.8378,VALID,74,VALID,0,
2013-04-17, 02:46:05,VALID,915.811,VALID,0,VALID,97.1376,VALID,0,VALID,19.8783,VALID,74,VALID,0,
2013-04-17, 02:47:05,VALID,915.827,VALID,0,VALID,97.1223,VALID,0,VALID,19.8978,VALID,74,VALID,0,
2013-04-17, 02:48:05,VALID,915.852,VALID,0,VALID,97.1299,VALID,0,VALID,19.9368,VALID,74,VALID,0,
2013-04-17, 02:49:05,VALID,915.868,VALID,0.2,VALID,97.1147,VALID,0,VALID,19.9173,VALID,74,VALID,0,
2013-04-17, 02:50:05,VALID,915.825,VALID,0,VALID,97.1071,VALID,0,VALID,19.9173,VALID,74,VALID,0,
2013-04-17, 02:51:05,VALID,915.827,VALID,0,VALID,97.1376,VALID,0,VALID,19.9578,VALID,74,VALID,0,
2013-04-17, 02:52:05,VALID,915.848,VALID,0,VALID,97.1223,VALID,0,VALID,19.9173,VALID,74,VALID,0,
2013-04-17, 02:53:05,VALID,915.824,VALID,0,VALID,97.1223,VALID,0,VALID,19.9188,VALID,74,VALID,0,
2013-04-17, 02:54:04,VALID,915.8,VALID,0,VALID,97.1147,VALID,0,VALID,19.8993,VALID,74,VALID,0,
2013-04-17, 02:55:04,VALID,915.726,VALID,0,VALID,97.1299,VALID,0,VALID,19.8798,VALID,74,VALID,0,
2013-04-17, 02:56:04,VALID,915.747,VALID,0,VALID,97.1376,VALID,0,VALID,19.8588,VALID,74,VALID,0,
2013-04-17, 02:57:04,VALID,915.766,VALID,0,VALID,97.1376,VALID,0,VALID,19.8198,VALID,74,VALID,0,
2013-04-17, 02:58:04,VALID,915.756,VALID,0,VALID,97.1528,VALID,0,VALID,19.8003,VALID,358,VALID,0,
2013-04-17, 02:59:04,VALID,915.763,VALID,0,VALID,97.1299,VALID,0,VALID,19.7808,VALID,359,VALID,0,
2013-04-17, 03:00:04,VALID,915.742,VALID,0,VALID,97.1528,VALID,0,VALID,19.7823,VALID,358,VALID,0,
2013-04-17, 03:01:04,VALID,915.747,VALID,0,VALID,97.1376,VALID,0,VALID,19.7598,VALID,358,VALID,0,
2013-04-17, 03:02:04,VALID,915.735,VALID,0,VALID,97.1376,VALID,0,VALID,19.7613,VALID,358,VALID,0,
2013-04-17, 03:03:04,VALID,915.703,VALID,0,VALID,97.1528,VALID,0,VALID,19.8003,VALID,358,VALID,0,
2013-04-17, 03:04:04,VALID,915.712,VALID,0,VALID,97.1223,VALID,0,VALID,19.8393,VALID,358,VALID,0,
2013-04-17, 03:05:04,VALID,915.691,VALID,0,VALID,97.1528,VALID,0,VALID,19.8393,VALID,358,VALID,0,
2013-04-17, 03:06:04,VALID,915.672,VALID,0,VALID,97.1452,VALID,0,VALID,19.8588,VALID,358,VALID,0,
2013-04-17, 03:07:04,VALID,915.696,VALID,0,VALID,97.1452,VALID,0,VALID,19.8588,VALID,359,VALID,0,
2013-04-17, 03:08:04,VALID,915.711,VALID,0,VALID,97.1299,VALID,0,VALID,19.8798,VALID,2,VALID,0,
2013-04-17, 03:09:04,VALID,915.67,VALID,0,VALID,97.1528,VALID,0,VALID,19.8978,VALID,2,VALID,0,
2013-04-17, 03:10:04,VALID,915.666,VALID,0,VALID,97.1528,VALID,0,VALID,19.8588,VALID,340,VALID,0,
2013-04-17, 03:11:04,VALID,915.636,VALID,0,VALID,97.1376,VALID,0,VALID,19.8003,VALID,28,VALID,0,
2013-04-17, 03:12:04,VALID,915.629,VALID,0,VALID,97.1528,VALID,0,VALID,19.8198,VALID,15,VALID,0,
2013-04-17, 03:13:04,VALID,915.63,VALID,0,VALID,97.1376,VALID,0,VALID,19.8198,VALID,357,VALID,0,
2013-04-17, 03:14:04,VALID,915.662,VALID,0,VALID,97.1604,VALID,0,VALID,19.7628,VALID,357,VALID,0,
2013-04-17, 03:15:04,VALID,915.692,VALID,0,VALID,97.1452,VALID,0,VALID,19.7613,VALID,357,VALID,0,
2013-04-17, 03:16:04,VALID,915.723,VALID,0,VALID,97.1604,VALID,0,VALID,19.8408,VALID,14,VALID,0,
2013-04-17, 03:17:04,VALID,915.735,VALID,0,VALID,97.1604,VALID,0,VALID,19.8198,VALID,351,VALID,0,
2013-04-17, 03:18:04,VALID,915.742,VALID,0,VALID,97.1681,VALID,0,VALID,19.7808,VALID,6,VALID,0,
2013-04-17, 03:19:04,VALID,915.725,VALID,0,VALID,97.1528,VALID,0,VALID,19.7613,VALID,352,VALID,0,
2013-04-17, 03:20:04,VALID,915.728,VALID,0,VALID,97.1833,VALID,0,VALID,19.7418,VALID,351,VALID,0,
2013-04-17, 03:21:04,VALID,915.693,VALID,0,VALID,97.1604,VALID,0,VALID,19.7433,VALID,4,VALID,0,
2013-04-17, 03:22:04,VALID,915.715,VALID,0,VALID,97.1833,VALID,0,VALID,19.7418,VALID,360,VALID,0,
2013-04-17, 03:23:04,VALID,915.684,VALID,0,VALID,97.1604,VALID,0,VALID,19.7028,VALID,358,VALID,0,
2013-04-17, 03:24:04,VALID,915.712,VALID,0,VALID,97.1681,VALID,0,VALID,19.7418,VALID,16,VALID,0,
2013-04-17, 03:25:04,VALID,915.71,VALID,0,VALID,97.1757,VALID,0,VALID,19.7613,VALID,24,VALID,0,
2013-04-17, 03:26:04,VALID,915.719,VALID,0,VALID,97.1757,VALID,0,VALID,19.7613,VALID,24,VALID,0,
2013-04-17, 03:27:04,VALID,915.702,VALID,0,VALID,97.1757,VALID,0,VALID,19.7808,VALID,24,VALID,0,
2013-04-17, 03:28:04,VALID,915.717,VALID,0,VALID,97.1757,VALID,0,VALID,19.7808,VALID,24,VALID,0,
2013-04-17, 03:29:04,VALID,915.731,VALID,0,VALID,97.1757,VALID,0,VALID,19.8003,VALID,357,VALID,0,
2013-04-17, 03:30:04,VALID,915.714,VALID,0,VALID,97.1681,VALID,0,VALID,19.8198,VALID,333,VALID,0,
2013-04-17, 03:31:04,VALID,915.716,VALID,0,VALID,97.1681,VALID,0,VALID,19.7418,VALID,348,VALID,0,
2013-04-17, 03:32:04,VALID,915.737,VALID,0,VALID,97.1833,VALID,0,VALID,19.7223,VALID,302,VALID,0,
2013-04-17, 03:33:04,VALID,915.705,VALID,0,VALID,97.1833,VALID,0,VALID,19.7418,VALID,302,VALID,0,
2013-04-17, 03:34:04,VALID,915.727,VALID,0,VALID,97.1681,VALID,0,VALID,19.7808,VALID,3,VALID,0,
2013-04-17, 03:35:04,VALID,915.715,VALID,0,VALID,97.1757,VALID,0,VALID,19.8018,VALID,229,VALID,0,
2013-04-17, 03:36:04,VALID,915.693,VALID,0,VALID,97.1909,VALID,0,VALID,19.7613,VALID,231,VALID,0,
2013-04-17, 03:37:04,VALID,915.716,VALID,0,VALID,97.1757,VALID,0,VALID,19.7808,VALID,214,VALID,0,
2013-04-17, 03:38:04,VALID,915.669,VALID,0,VALID,97.1757,VALID,0,VALID,19.8018,VALID,214,VALID,0,
2013-04-17, 03:39:04,VALID,915.663,VALID,0,VALID,97.1833,VALID,0,VALID,19.7613,VALID,214,VALID,0,
2013-04-17, 03:40:04,VALID,915.624,VALID,0,VALID,97.1757,VALID,0,VALID,19.7808,VALID,178,VALID,0,
2013-04-17, 03:41:04,VALID,915.643,VALID,0,VALID,97.1909,VALID,0,VALID,19.7808,VALID,191,VALID,0,
2013-04-17, 03:42:04,VALID,915.652,VALID,0,VALID,97.1833,VALID,0,VALID,19.8018,VALID,249,VALID,0,
2013-04-17, 03:43:04,VALID,915.629,VALID,0,VALID,97.1757,VALID,0,VALID,19.7823,VALID,250,VALID,0,
2013-04-17, 03:44:04,VALID,915.625,VALID,0,VALID,97.1986,VALID,0,VALID,19.7418,VALID,251,VALID,0,
2013-04-17, 03:45:04,VALID,915.608,VALID,0,VALID,97.1909,VALID,0,VALID,19.7223,VALID,235,VALID,0,
2013-04-17, 03:46:04,VALID,915.607,VALID,0,VALID,97.1833,VALID,0,VALID,19.7628,VALID,235,VALID,0,
2013-04-17, 03:47:04,VALID,915.609,VALID,0,VALID,97.1909,VALID,0,VALID,19.7433,VALID,243,VALID,0,
2013-04-17, 03:48:04,VALID,915.609,VALID,0,VALID,97.229,VALID,0,VALID,19.7433,VALID,246,VALID,0,
2013-04-17, 03:49:04,VALID,915.628,VALID,0,VALID,97.2062,VALID,0,VALID,19.7433,VALID,247,VALID,0,
2013-04-17, 03:50:04,VALID,915.622,VALID,0,VALID,97.1986,VALID,0,VALID,19.7028,VALID,248,VALID,0,
2013-04-17, 03:51:04,VALID,915.637,VALID,0.2,VALID,97.1909,VALID,0,VALID,19.7223,VALID,298,VALID,0,
2013-04-17, 03:52:04,VALID,915.628,VALID,0,VALID,97.1833,VALID,0,VALID,19.7418,VALID,349,VALID,0,
2013-04-17, 03:53:04,VALID,915.616,VALID,0.2,VALID,97.2062,VALID,0,VALID,19.7823,VALID,352,VALID,0,
2013-04-17, 03:54:04,VALID,915.65,VALID,0,VALID,97.2062,VALID,0,VALID,19.8003,VALID,350,VALID,0,
2013-04-17, 03:55:04,VALID,915.63,VALID,0,VALID,97.2062,VALID,0,VALID,19.8408,VALID,319,VALID,0,
2013-04-17, 03:56:04,VALID,915.607,VALID,0.2,VALID,97.1909,VALID,0,VALID,19.8603,VALID,326,VALID,0,
2013-04-17, 03:57:04,VALID,915.592,VALID,0,VALID,97.2138,VALID,0,VALID,19.8393,VALID,29,VALID,0,
2013-04-17, 03:58:04,VALID,915.587,VALID,0.2,VALID,97.1909,VALID,0,VALID,19.8603,VALID,324,VALID,0,